{"data":{"norad_id":64811,"epoch":"2026-05-25T03:39:14.796576Z","epoch_age_seconds":68739,"freshness":"FRESH","line1":"1 64811U 25150X   26145.15225459 -.00002295  00000+0 -18461-3 0  9996","line2":"2 64811  70.0004 301.5216 0002837 266.7650  93.3184 14.98327400 47976","mean_motion":14.983274,"eccentricity":0.0002837,"inclination_deg":70.0004,"raan_deg":301.5216,"arg_perigee_deg":266.765,"mean_anomaly_deg":93.3184,"bstar":-0.00018461,"rev_number":4797,"period_min":96.10716589712,"perigee_km":570.09215923738,"apogee_km":574.03570324576,"semimajor_km":6950.2009312416,"source":"CELESTRAK","updated_at":"2026-05-25T13:38:20.569526Z"}}